When you browse on this site, cookies collect data to enhance your experience and personalize the content and advertising you see.
Visit our Privacy Policy to learn more. By continuing to use the site, you agree to this use of cookies and data.
  • In Schweiz
  • Länderverzeichnis
  • Für 7 Tage
  • Wassertemperatur
  • Wetterkarte
  • Widgets
  • user-avatar
    Anmelden

    Stündliche Wetter Kchulna

    Heute, 28 Januar, Dienstag

    Zeit Temperatur Niederschläge Wind Luftdruck Luftfeuchtigkeit
    00:00 +17°C° 0 mm 0 m/S 758 mmHg 51%
    01:00 +16°C° 0 mm 0 m/S 758 mmHg 52%
    02:00 +16°C° 0 mm 0 m/S 758 mmHg 54%
    03:00 +16°C° 0 mm 1 m/S 758 mmHg 55%
    04:00 +15°C° 0 mm 0 m/S 758 mmHg 57%
    05:00 +14°C° 0 mm 0 m/S 758 mmHg 58%
    06:00 +15°C° 0 mm 1 m/S 758 mmHg 63%
    07:00 +18°C° 0 mm 1 m/S 759 mmHg 57%
    08:00 +20°C° 0 mm 1 m/S 759 mmHg 51%
    09:00 +22°C° 0 mm 1 m/S 760 mmHg 44%
    10:00 +24°C° 0 mm 1 m/S 760 mmHg 39%
    11:00 +26°C° 0 mm 1 m/S 759 mmHg 34%
    12:00 +28°C° 0 mm 1 m/S 759 mmHg 29%
    13:00 +29°C° 0 mm 2 m/S 759 mmHg 27%
    14:00 +29°C° 0 mm 2 m/S 758 mmHg 26%
    15:00 +30°C° 0 mm 3 m/S 758 mmHg 24%
    16:00 +28°C° 0 mm 2 m/S 757 mmHg 27%
    17:00 +27°C° 0 mm 1 m/S 757 mmHg 31%
    18:00 +25°C° 0 mm 1 m/S 757 mmHg 34%
    19:00 +24°C° 0 mm 1 m/S 758 mmHg 40%
    20:00 +22°C° 0 mm 1 m/S 759 mmHg 46%
    21:00 +20°C° 0 mm 2 m/S 759 mmHg 52%
    22:00 +20°C° 0 mm 2 m/S 759 mmHg 56%
    23:00 +19°C° 0 mm 2 m/S 759 mmHg 60%

    Morgen, 29 Januar, Mittwoch

    Zeit Temperatur Niederschläge Wind Luftdruck Luftfeuchtigkeit
    00:00 +19°C° 0 mm 2 m/S 760 mmHg 64%
    01:00 +18°C° 0 mm 2 m/S 759 mmHg 66%
    02:00 +18°C° 0 mm 2 m/S 759 mmHg 68%
    03:00 +18°C° 0 mm 2 m/S 759 mmHg 70%
    04:00 +19°C° 0 mm 1 m/S 759 mmHg 71%
    05:00 +19°C° 0 mm 1 m/S 759 mmHg 73%
    06:00 +18°C° 0 mm 1 m/S 759 mmHg 75%
    07:00 +20°C° 0 mm 1 m/S 760 mmHg 69%
    08:00 +22°C° 0 mm 1 m/S 761 mmHg 63%
    09:00 +24°C° 0 mm 1 m/S 761 mmHg 57%
    10:00 +25°C° 0 mm 1 m/S 761 mmHg 53%
    11:00 +26°C° 0 mm 2 m/S 761 mmHg 50%
    12:00 +28°C° 0 mm 2 m/S 761 mmHg 46%
    13:00 +29°C° 0 mm 2 m/S 760 mmHg 43%
    14:00 +30°C° 0 mm 2 m/S 759 mmHg 39%
    15:00 +31°C° 0 mm 2 m/S 758 mmHg 36%
    16:00 +29°C° 0 mm 2 m/S 758 mmHg 39%
    17:00 +28°C° 0 mm 3 m/S 758 mmHg 43%
    18:00 +26°C° 0 mm 3 m/S 758 mmHg 47%
    19:00 +25°C° 0 mm 2 m/S 758 mmHg 52%
    20:00 +24°C° 0 mm 2 m/S 759 mmHg 58%
    21:00 +21°C° 0 mm 2 m/S 759 mmHg 63%
    22:00 +21°C° 0 mm 2 m/S 759 mmHg 64%
    23:00 +21°C° 0 mm 2 m/S 759 mmHg 66%

    übermorgen, 30 Januar, Donnerstag

    Zeit Temperatur Niederschläge Wind Luftdruck Luftfeuchtigkeit
    00:00 +20°C° 0 mm 2 m/S 759 mmHg 67%
    01:00 +20°C° 0.1 mm 2 m/S 758 mmHg 69%
    02:00 +21°C° 0.1 mm 1 m/S 758 mmHg 71%
    03:00 +21°C° 0.1 mm 1 m/S 757 mmHg 73%
    04:00 +20°C° 0.7 mm 1 m/S 758 mmHg 76%
    05:00 +20°C° 0.7 mm 1 m/S 758 mmHg 80%
    06:00 +20°C° 0.7 mm 1 m/S 758 mmHg 83%
    07:00 +20°C° 0.5 mm 2 m/S 759 mmHg 77%
    08:00 +23°C° 0.5 mm 2 m/S 759 mmHg 72%
    09:00 +24°C° 0.5 mm 3 m/S 760 mmHg 66%
    10:00 +26°C° 0.2 mm 3 m/S 759 mmHg 61%
    11:00 +28°C° 0.2 mm 3 m/S 759 mmHg 55%
    12:00 +30°C° 0.2 mm 3 m/S 759 mmHg 50%
    13:00 +30°C° 0.6 mm 2 m/S 758 mmHg 51%
    14:00 +29°C° 0.6 mm 2 m/S 757 mmHg 52%
    15:00 +29°C° 0.6 mm 2 m/S 756 mmHg 53%
    16:00 +28°C° 0.9 mm 2 m/S 756 mmHg 59%
    17:00 +26°C° 0.9 mm 2 m/S 756 mmHg 65%
    18:00 +25°C° 0.9 mm 2 m/S 756 mmHg 71%
    19:00 +24°C° 0.1 mm 2 m/S 757 mmHg 75%
    20:00 +24°C° 0.1 mm 1 m/S 757 mmHg 79%
    21:00 +23°C° 0.1 mm 1 m/S 757 mmHg 83%
    22:00 +23°C° 0 mm 1 m/S 757 mmHg 85%
    23:00 +22°C° 0 mm 1 m/S 757 mmHg 86%

    31 Januar, Freitag

    Zeit Temperatur Niederschläge Wind Luftdruck Luftfeuchtigkeit
    00:00 +22°C° 0 mm 1 m/S 757 mmHg 88%
    01:00 +22°C° 0 mm 1 m/S 757 mmHg 88%
    02:00 +21°C° 0 mm 1 m/S 757 mmHg 88%
    03:00 +20°C° 0 mm 2 m/S 757 mmHg 87%
    04:00 +20°C° 0 mm 2 m/S 757 mmHg 85%
    05:00 +19°C° 0 mm 2 m/S 757 mmHg 83%
    06:00 +19°C° 0 mm 2 m/S 758 mmHg 81%
    07:00 +20°C° 0 mm 3 m/S 758 mmHg 73%
    08:00 +22°C° 0 mm 3 m/S 759 mmHg 64%
    09:00 +24°C° 0 mm 3 m/S 760 mmHg 56%
    10:00 +25°C° 0 mm 3 m/S 759 mmHg 50%
    11:00 +27°C° 0 mm 3 m/S 759 mmHg 44%
    12:00 +28°C° 0 mm 3 m/S 759 mmHg 38%
    13:00 +29°C° 0 mm 3 m/S 759 mmHg 36%
    14:00 +29°C° 0 mm 2 m/S 758 mmHg 34%
    15:00 +30°C° 0 mm 2 m/S 757 mmHg 32%
    16:00 +28°C° 0 mm 2 m/S 757 mmHg 35%
    17:00 +27°C° 0 mm 2 m/S 757 mmHg 37%
    18:00 +26°C° 0 mm 2 m/S 757 mmHg 40%
    19:00 +25°C° 0 mm 2 m/S 758 mmHg 41%
    20:00 +23°C° 0 mm 2 m/S 758 mmHg 43%
    21:00 +21°C° 0 mm 2 m/S 759 mmHg 44%
    22:00 +21°C° 0 mm 2 m/S 759 mmHg 44%
    23:00 +21°C° 0 mm 1 m/S 759 mmHg 44%

    1 Februar, Samstag

    Zeit Temperatur Niederschläge Wind Luftdruck Luftfeuchtigkeit
    00:00 +21°C° 0 mm 1 m/S 759 mmHg 43%
    01:00 +20°C° 0 mm 1 m/S 759 mmHg 44%
    02:00 +20°C° 0 mm 1 m/S 758 mmHg 45%
    03:00 +19°C° 0 mm 1 m/S 758 mmHg 46%
    04:00 +19°C° 0 mm 1 m/S 759 mmHg 47%
    05:00 +18°C° 0 mm 1 m/S 759 mmHg 48%
    06:00 +17°C° 0 mm 2 m/S 759 mmHg 48%
    07:00 +19°C° 0 mm 2 m/S 760 mmHg 45%
    08:00 +20°C° 0 mm 2 m/S 760 mmHg 43%
    09:00 +23°C° 0 mm 2 m/S 761 mmHg 40%
    10:00 +24°C° 0 mm 2 m/S 761 mmHg 36%
    11:00 +26°C° 0 mm 2 m/S 761 mmHg 33%
    12:00 +28°C° 0 mm 2 m/S 761 mmHg 29%
    13:00 +29°C° 0 mm 2 m/S 760 mmHg 28%
    14:00 +29°C° 0 mm 2 m/S 760 mmHg 28%
    15:00 +30°C° 0 mm 2 m/S 759 mmHg 27%
    16:00 +28°C° 0 mm 2 m/S 759 mmHg 30%
    17:00 +27°C° 0 mm 2 m/S 759 mmHg 32%
    18:00 +25°C° 0 mm 2 m/S 759 mmHg 35%
    19:00 +24°C° 0 mm 2 m/S 759 mmHg 38%
    20:00 +23°C° 0 mm 1 m/S 760 mmHg 41%
    21:00 +22°C° 0 mm 1 m/S 760 mmHg 44%
    22:00 +22°C° 0 mm 1 m/S 760 mmHg 46%
    23:00 +21°C° 0 mm 1 m/S 760 mmHg 47%

    2 Februar, Sonntag

    Zeit Temperatur Niederschläge Wind Luftdruck Luftfeuchtigkeit
    00:00 +21°C° 0 mm 1 m/S 760 mmHg 49%
    01:00 +21°C° 0 mm 1 m/S 760 mmHg 48%
    02:00 +21°C° 0 mm 1 m/S 760 mmHg 48%
    03:00 +21°C° 0 mm 1 m/S 759 mmHg 47%
    04:00 +20°C° 0 mm 1 m/S 760 mmHg 46%
    05:00 +20°C° 0 mm 1 m/S 760 mmHg 46%
    06:00 +19°C° 0 mm 2 m/S 760 mmHg 45%
    07:00 +20°C° 0 mm 2 m/S 761 mmHg 43%
    08:00 +21°C° 0 mm 2 m/S 761 mmHg 40%
    09:00 +23°C° 0 mm 2 m/S 762 mmHg 38%
    10:00 +25°C° 0 mm 2 m/S 762 mmHg 34%
    11:00 +26°C° 0 mm 2 m/S 762 mmHg 30%
    12:00 +28°C° 0 mm 2 m/S 761 mmHg 26%
    13:00 +29°C° 0 mm 2 m/S 761 mmHg 25%
    14:00 +29°C° 0 mm 2 m/S 760 mmHg 25%
    15:00 +30°C° 0 mm 2 m/S 760 mmHg 25%
    16:00 +28°C° 0 mm 2 m/S 759 mmHg 28%
    17:00 +27°C° 0 mm 2 m/S 759 mmHg 32%
    18:00 +25°C° 0 mm 2 m/S 759 mmHg 35%
    19:00 +24°C° 0 mm 2 m/S 760 mmHg 37%
    20:00 +23°C° 0 mm 2 m/S 760 mmHg 38%
    21:00 +22°C° 0 mm 1 m/S 760 mmHg 40%
    22:00 +21°C° 0 mm 1 m/S 760 mmHg 41%
    23:00 +21°C° 0 mm 1 m/S 760 mmHg 42%
    Mehr zeigen